Regional Weather Roundup
Issued by NWS

Home | Current Version | Previous Version | Graphics & Text | Print | Product List | Glossary On
Versions: 1 2 3 4 5 6 7 8 9 10 11 12 13 14 15 16 17 18 19 20 21 22 23 24 25 26 27
000
ASUS45 KBOI 241210
RWRID

IDAHO REGIONAL WEATHER ROUNDUP
NATIONAL WEATHER SERVICE BOISE ID
600 AM MDT FRI MAR 24 2017

NOTE: "FAIR" INDICATES FEW OR NO CLOUDS BELOW 12000 FEET
WITH NO SIGNIFICANT WEATHER AND/OR OBSTRUCTIONS TO VISIBILITY

IDZ012-014-241300-
SOUTHWEST IDAHO


CITY           SKY/WX    TMP DP  RH WIND       PRES   REMARKS
BOISE          MOCLDY    44  26  49 SE16      30.01F
CALDWELL       CLOUDY    45  28  51 SE17      30.01F
MOUNTAIN HOME  PTCLDY    38  35  88 E15       30.05F WCI  29
$$

IDZ016-017-241300-
SOUTHCENTRAL IDAHO


CITY           SKY/WX    TMP DP  RH WIND       PRES   REMARKS
BURLEY         CLEAR     35  25  66 S7        30.11S WCI  29
JEROME         CLEAR     36  26  67 E9        30.10S WCI  29
TWIN FALLS     CLEAR     36  25  64 S13       30.09S WCI  27
$$

IDZ019>023-241300-
SOUTHEAST IDAHO


CITY           SKY/WX    TMP DP  RH WIND       PRES   REMARKS
IDAHO FALLS    CLEAR     32  24  72 W3        30.13R
POCATELLO      CLEAR     32  26  78 E5        30.14S WCI  27
REXBURG        CLEAR     30  25  81 CALM      30.14R
$$

IDZ006-010-011-018-031-032-241300-
CENTRAL IDAHO MOUNTAINS


CITY           SKY/WX    TMP DP  RH WIND       PRES   REMARKS
MCCALL         MOCLDY    25  21  85 N3        29.99F
HAILEY         PTCLDY    30  21  69 NW8       30.14R WCI  23
STANLEY          N/A     16  12  84 CALM      30.09F
SALMON         CLOUDY    25  19  80 CALM      30.08R
CHALLIS        CLEAR     26  20  77 CALM      30.07S
$$

IDZ002-004-006-007-026-241300-
NORTHERN IDAHO


CITY           SKY/WX    TMP DP  RH WIND       PRES   REMARKS
LEWISTON       CLOUDY    42  33  70 E8        29.93F
LOWELL           N/A     33  30  88 N5        30.06F WCI  29
COEUR D`ALENE  CLOUDY    34  29  82 E6        29.94S WCI  29
MULLAN PASS    CLOUDY    24  22  91 S10G20    29.90F WCI  14
$$




USA.gov is the U.S. government's official web portal to all federal, state and local government web resources and services.